Retour au catalogue

STARLINK-33829

ActifCommunicationsVLEO
NORAD 63496·PAYLOAD·🇺🇸 United States

Lancé Apr 7, 2025 depuis Vandenberg Space Force Base

Loading…

Prochains Passages (prochaines 24 heures)

TLE

FraisSource: CelesTrak SupGP

Époque: Sep 14, 2026, 14:17 UTC

1 63496C 25071D   26257.59562500 -.00028540  00000+0 -91814-3 0  2570
2 63496  53.1607 341.4666 0001250  78.5720  26.4063 15.31703982    10

Suivez STARLINK-33829 en temps réel avec AllMySat

Download on the App Store